Wiscasset, ME

10:18 AM EST on January 21, 2018 (GMT -0500)
Wiscasset

Weather History for KIWI - April, 2013

Change the Weather History Date:

Sunday, April 21, 2013

  Actual Average Record
Temperature  
Mean Temperature 40 °F -  
Max Temperature 51 °F 53 °F 73 °F (2007)
Min Temperature 28 °F 30 °F 28 °F (1999)
Degree Days  
Heating Degree Days 24    
Moisture  
Dew Point 19 °F    
Average Humidity 44    
Maximum Humidity 78    
Minimum Humidity 22    
Precipitation  
Precipitation 0.00 in - - ()
Sea Level Pressure  
Sea Level Pressure 30.49 in    
Wind  
Wind Speed 3 mph (NW)    
Max Wind Speed 12 mph    
Max Gust Speed 20 mph    
Averages and records for this station are not official NWS values.
T = Trace of Precipitation, MM = Missing Value Source: NWS Daily Summary

Daily Weather History Graph

Daily Weather History Graph

Search for Another Location

Airport or City:

Trip Planner

Search our weather history database for the weather conditions in past years. The results will help you decide how hot, cold, wet, or windy it might be!

Date:

Astronomy

Apr. 21, 2013 Rise Set
Actual Time 5:45 AM EDT 7:30 PM EDT
Civil Twilight 5:14 AM EDT 8:00 PM EDT
Nautical Twilight 4:37 AM EDT 8:38 PM EDT
Astronomical Twilight 3:57 AM EDT 9:18 PM EDT
Moon 3:03 PM EDT 3:15 AM EDT
Length of Visible Light 14h 46m
Length of Day
13h 44m
Waxing Gibbous, 79% of the Moon is Illuminated
Apr 21
Waxing Gibbous
Apr 25
Full
May 2
Last Quarter
May 9
New
May 18
First Quarter

Hourly Weather History & Observations

Time (EDT) Temp. Windchill Dew Point Humidity Pressure Visibility Wind Dir Wind Speed Gust Speed Precip Events Conditions
12:53 AM 42.1 °F - 21.0 °F 43% 30.19 in - Calm Calm - N/A   Clear
1:53 AM 39.9 °F - 19.9 °F 45% 30.22 in - Calm Calm - N/A   Partly Cloudy
2:53 AM 37.9 °F 35.5 °F 19.0 °F 47% 30.25 in - West 3.5 mph - N/A   Clear
3:53 AM 37.0 °F - 21.9 °F 54% 30.29 in - Calm Calm - N/A   Clear
4:53 AM 35.1 °F - 21.9 °F 59% 30.32 in - Calm Calm - N/A   Partly Cloudy
5:53 AM 34.0 °F - 21.0 °F 59% 30.36 in - Calm Calm - N/A   Clear
6:53 AM 36.0 °F 31.1 °F 19.0 °F 50% 30.41 in - NW 5.8 mph - N/A   Clear
7:53 AM 39.0 °F 32.8 °F 19.0 °F 45% 30.45 in - WNW 9.2 mph 19.6 mph N/A   Clear
8:53 AM 41.0 °F 35.8 °F 18.0 °F 40% 30.47 in - WNW 8.1 mph - N/A   Partly Cloudy
9:53 AM 42.1 °F 37.7 °F 17.1 °F 37% 30.50 in - Variable 6.9 mph - N/A   Partly Cloudy
10:53 AM 44.1 °F 40.8 °F 17.1 °F 34% 30.51 in - Variable 5.8 mph - N/A   Clear
11:53 AM 45.0 °F 43.5 °F 19.0 °F 36% 30.52 in - Variable 3.5 mph - N/A   Clear
12:53 PM 46.0 °F 40.6 °F 18.0 °F 33% 30.53 in - NW 11.5 mph 18.4 mph N/A   Clear
1:53 PM 48.0 °F - 18.0 °F 30% 30.53 in - NW 8.1 mph - N/A   Clear
2:53 PM 48.9 °F - 17.1 °F 28% 30.54 in - Variable 6.9 mph - N/A   Clear
3:53 PM 51.1 °F - 16.0 °F 25% 30.54 in - Variable 5.8 mph - N/A   Clear
4:53 PM 51.1 °F - 12.9 °F 22% 30.56 in - NNE 8.1 mph - N/A   Clear
5:53 PM 50.0 °F - 12.9 °F 23% 30.57 in - Calm Calm - N/A   Clear
6:53 PM 48.9 °F - 12.9 °F 24% 30.59 in - Calm Calm - N/A   Clear
7:53 PM 39.9 °F - 21.9 °F 49% 30.63 in - Calm Calm - N/A   Clear
8:53 PM 36.0 °F - 23.0 °F 59% 30.66 in - Calm Calm - N/A   Clear
9:53 PM 32.0 °F - 23.0 °F 69% 30.68 in - Calm Calm - N/A   Clear
10:53 PM 30.0 °F - 23.0 °F 75% 30.70 in - Calm Calm - N/A   Clear
11:53 PM 28.9 °F - 23.0 °F 78% 30.72 in - Calm Calm - N/A   Clear